Summerville, SC

5:26 PM EDT on October 23, 2017 (GMT -0400)
Summerville

Weather History for KDYB - January, 2013

Change the Weather History Date:

Sunday, January 27, 2013

  Actual Average (KCHS) Record (KCHS)
Temperature  
Mean Temperature 42 °F -  
Max Temperature 53 °F 57 °F 82 °F (1950)
Min Temperature 32 °F 36 °F 14 °F (1940)
Degree Days  
Heating Degree Days 22    
Moisture  
Dew Point 33 °F    
Average Humidity 72    
Maximum Humidity 93    
Minimum Humidity 44    
Precipitation  
Precipitation 0.00 in - - ()
Sea Level Pressure  
Sea Level Pressure 30.45 in    
Wind  
Wind Speed 4 mph (NE)    
Max Wind Speed 15 mph    
Max Gust Speed 20 mph    
Visibility 10 miles    
Events      
Averages and records for this station are not official NWS values.
T = Trace of Precipitation, MM = Missing Value Source: NWS Daily Summary

Daily Weather History Graph

Daily Weather History Graph

Search for Another Location

Airport or City:

Trip Planner

Search our weather history database for the weather conditions in past years. The results will help you decide how hot, cold, wet, or windy it might be!

Date:

Astronomy

Jan. 27, 2013 Rise Set
Actual Time 7:19 AM EST 5:48 PM EST
Civil Twilight 6:53 AM EST 6:14 PM EST
Nautical Twilight 6:23 AM EST 6:44 PM EST
Astronomical Twilight 5:54 AM EST 7:14 PM EST
Moon 6:35 PM EST (1/27) 7:15 AM EST (1/27)
Length of Visible Light 11h 21m
Length of Day
10h 29m
Full, 100% of the Moon is Illuminated
Jan 27
Full
Feb 3
Last Quarter
Feb 10
New
Feb 17
First Quarter
Feb 25
Full

Hourly Weather History & Observations

Time (EST) Temp. Windchill Dew Point Humidity Pressure Visibility Wind Dir Wind Speed Gust Speed Precip Events Conditions
12:15 AM 37.4 °F - 33.8 °F 87% 30.34 in 10.0 mi Calm Calm - N/A   Clear
12:35 AM 37.4 °F - 33.8 °F 87% 30.33 in 10.0 mi Calm Calm - N/A   Clear
12:55 AM 35.6 °F 32.8 °F 33.8 °F 93% 30.34 in 10.0 mi NE 3.5 mph - N/A   Clear
1:15 AM 35.6 °F 32.8 °F 33.8 °F 93% 30.35 in 10.0 mi NE 3.5 mph - N/A   Clear
1:35 AM 35.6 °F 32.8 °F 32.0 °F 87% 30.35 in 10.0 mi NNE 3.5 mph - N/A   Clear
1:55 AM 35.6 °F 31.7 °F 32.0 °F 87% 30.36 in 10.0 mi NNE 4.6 mph - N/A   Clear
2:15 AM 35.6 °F 32.8 °F 32.0 °F 87% 30.36 in 10.0 mi NNE 3.5 mph - N/A   Clear
2:35 AM 35.6 °F - 32.0 °F 87% 30.37 in 10.0 mi Calm Calm - N/A   Clear
2:55 AM 33.8 °F - 32.0 °F 93% 30.37 in 10.0 mi Calm Calm - N/A   Clear
3:15 AM 35.6 °F 32.8 °F 33.8 °F 93% 30.38 in 10.0 mi NNE 3.5 mph - N/A   Clear
3:35 AM 35.6 °F 32.8 °F 33.8 °F 93% 30.38 in 10.0 mi NE 3.5 mph - N/A   Clear
3:55 AM 35.6 °F 31.7 °F 32.0 °F 87% 30.38 in 10.0 mi NE 4.6 mph - N/A   Clear
4:15 AM 35.6 °F 31.7 °F 32.0 °F 87% 30.39 in 10.0 mi NE 4.6 mph - N/A   Clear
4:35 AM 35.6 °F 31.7 °F 32.0 °F 87% 30.39 in 10.0 mi NE 4.6 mph - N/A   Clear
4:55 AM 33.8 °F 29.6 °F 30.2 °F 87% 30.40 in 10.0 mi NE 4.6 mph - N/A   Clear
5:15 AM 33.8 °F 30.8 °F 30.2 °F 87% 30.41 in 10.0 mi NNE 3.5 mph - N/A   Clear
5:35 AM 33.8 °F 30.8 °F 30.2 °F 87% 30.41 in 10.0 mi NE 3.5 mph - N/A   Clear
5:55 AM 33.8 °F 30.8 °F 30.2 °F 87% 30.41 in 10.0 mi NNE 3.5 mph - N/A   Clear
6:15 AM 33.8 °F 30.8 °F 28.4 °F 81% 30.42 in 10.0 mi NNE 3.5 mph - N/A   Clear
6:35 AM 33.8 °F 29.6 °F 28.4 °F 81% 30.43 in 10.0 mi NNE 4.6 mph - N/A   Clear
6:55 AM 33.8 °F 29.6 °F 28.4 °F 81% 30.43 in 10.0 mi NE 4.6 mph - N/A   Clear
7:15 AM 32.0 °F 28.7 °F 28.4 °F 87% 30.44 in 10.0 mi NNE 3.5 mph - N/A   Clear
7:35 AM 33.8 °F 29.6 °F 28.4 °F 81% 30.45 in 10.0 mi NNE 4.6 mph - N/A   Clear
7:55 AM 33.8 °F 29.6 °F 28.4 °F 81% 30.46 in 10.0 mi NE 4.6 mph - N/A   Clear
8:15 AM 35.6 °F 30.7 °F 30.2 °F 81% 30.47 in 10.0 mi NNE 5.8 mph - N/A   Clear
8:55 AM 37.4 °F 32.8 °F 32.0 °F 81% 30.48 in 10.0 mi NNE 5.8 mph - N/A   Clear
9:15 AM 41.0 °F 37.1 °F 32.0 °F 70% 30.49 in 10.0 mi NNE 5.8 mph - N/A   Clear
9:35 AM 41.0 °F 35.8 °F 32.0 °F 70% 30.50 in 10.0 mi NE 8.1 mph - N/A   Clear
9:55 AM 42.8 °F 37.0 °F 33.8 °F 70% 30.51 in 10.0 mi NNE 10.4 mph - N/A   Clear
10:15 AM 44.6 °F 40.2 °F 33.8 °F 66% 30.51 in 10.0 mi NNE 8.1 mph - N/A   Clear
10:35 AM 44.6 °F 40.2 °F 35.6 °F 71% 30.51 in 10.0 mi NNE 8.1 mph - N/A   Clear
10:55 AM 46.4 °F 42.4 °F 35.6 °F 66% 30.51 in 10.0 mi NNE 8.1 mph - N/A   Clear
11:15 AM 46.4 °F 42.4 °F 35.6 °F 66% 30.51 in 10.0 mi NNE 8.1 mph - N/A   Clear
11:35 AM 48.2 °F - 35.6 °F 62% 30.50 in 10.0 mi NNE 9.2 mph - N/A   Clear
11:55 AM 50.0 °F - 35.6 °F 58% 30.50 in 10.0 mi NNE 9.2 mph - N/A   Clear
12:15 PM 51.8 °F - 35.6 °F 54% 30.48 in 10.0 mi NNE 9.2 mph - N/A   Clear
12:35 PM 51.8 °F - 33.8 °F 50% 30.48 in 10.0 mi ENE 5.8 mph - N/A   Clear
12:55 PM 51.8 °F - 33.8 °F 50% 30.48 in 10.0 mi East 4.6 mph - N/A   Clear
1:15 PM 53.6 °F - 33.8 °F 47% 30.48 in 10.0 mi East 9.2 mph - N/A   Clear
1:35 PM 53.6 °F - 35.6 °F 51% 30.47 in 10.0 mi NE 3.5 mph - N/A   Clear
1:55 PM 53.6 °F - 35.6 °F 51% 30.46 in 10.0 mi NNE 15.0 mph 19.6 mph N/A   Clear
2:15 PM 53.6 °F - 35.6 °F 51% 30.46 in 10.0 mi North 10.4 mph 16.1 mph N/A   Clear
2:35 PM 53.6 °F - 35.6 °F 51% 30.47 in 10.0 mi ENE 4.6 mph - N/A   Clear
2:55 PM 53.6 °F - 35.6 °F 51% 30.46 in 10.0 mi NNE 8.1 mph - N/A   Clear
3:15 PM 53.6 °F - 33.8 °F 47% 30.46 in 10.0 mi NNE 8.1 mph - N/A   Clear
3:35 PM 53.6 °F - 33.8 °F 47% 30.46 in 10.0 mi NNE 9.2 mph - N/A   Clear
3:55 PM 53.6 °F - 33.8 °F 47% 30.46 in 10.0 mi NE 4.6 mph - N/A   Clear
4:15 PM 53.6 °F - 33.8 °F 47% 30.46 in 10.0 mi NNE 9.2 mph - N/A   Clear
4:35 PM 53.6 °F - 32.0 °F 44% 30.46 in 10.0 mi ENE 4.6 mph - N/A   Clear
4:55 PM 51.8 °F - 33.8 °F 50% 30.46 in 10.0 mi Calm Calm - N/A   Clear
5:15 PM 51.8 °F - 33.8 °F 50% 30.47 in 10.0 mi East 6.9 mph - N/A   Clear
5:35 PM 50.0 °F - 33.8 °F 54% 30.48 in 10.0 mi East 4.6 mph - N/A   Clear
5:55 PM 48.2 °F - 33.8 °F 58% 30.48 in 10.0 mi East 4.6 mph - N/A   Clear
6:15 PM 46.4 °F 44.3 °F 33.8 °F 62% 30.49 in 10.0 mi ENE 4.6 mph - N/A   Mostly Cloudy
6:35 PM 46.4 °F 43.5 °F 35.6 °F 66% 30.48 in 10.0 mi East 5.8 mph - N/A   Overcast
6:55 PM 44.6 °F 43.1 °F 35.6 °F 71% 30.49 in 10.0 mi East 3.5 mph - N/A   Overcast
7:15 PM 44.6 °F - 35.6 °F 71% 30.50 in 10.0 mi Calm Calm - N/A   Scattered Clouds
7:35 PM 44.6 °F 42.2 °F 35.6 °F 71% 30.50 in 10.0 mi ENE 4.6 mph - N/A   Clear
7:55 PM 42.8 °F 41.1 °F 35.6 °F 76% 30.50 in 10.0 mi East 3.5 mph - N/A   Clear
8:15 PM 42.8 °F 41.1 °F 35.6 °F 76% 30.51 in 10.0 mi East 3.5 mph - N/A   Clear
8:35 PM 42.8 °F 41.1 °F 35.6 °F 76% 30.50 in 10.0 mi ENE 3.5 mph - N/A   Clear
8:55 PM 41.0 °F - 35.6 °F 81% 30.50 in 10.0 mi Calm Calm - N/A   Clear
9:15 PM 41.0 °F - 35.6 °F 81% 30.50 in 10.0 mi Calm Calm - N/A   Clear
9:35 PM 41.0 °F 39.0 °F 35.6 °F 81% 30.50 in 10.0 mi NNE 3.5 mph - N/A   Clear
9:55 PM 41.0 °F - 35.6 °F 81% 30.49 in 10.0 mi Calm Calm - N/A   Mostly Cloudy
10:15 PM 41.0 °F 39.0 °F 35.6 °F 81% 30.49 in 10.0 mi NE 3.5 mph - N/A   Scattered Clouds
10:35 PM 41.0 °F - 35.6 °F 81% 30.49 in 10.0 mi Calm Calm - N/A   Mostly Cloudy
10:55 PM 41.0 °F - 35.6 °F 81% 30.48 in 10.0 mi Calm Calm - N/A   Mostly Cloudy
11:15 PM 41.0 °F - 35.6 °F 81% 30.48 in 10.0 mi Calm Calm - N/A   Mostly Cloudy
11:35 PM 41.0 °F 39.0 °F 35.6 °F 81% 30.48 in 10.0 mi NNE 3.5 mph - N/A   Scattered Clouds
11:55 PM 39.2 °F - 35.6 °F 87% 30.48 in 10.0 mi Calm Calm - N/A   Clear